Location: West Sayville
(40.7279°N, 73.0976°W)
Time: 09:49:24
(UTC+00:00)

Cosmos 2219 - Pass Details

Date: 29 October 2020
Orbit: 832 x 862 km, 71.1° (Epoch: 23 November)

Event Time Altitude Azimuth Distance (km) Brightness Sun altitude
Rises 23:11:04 0° 332° (NNW) 3,446 6.7 -15.6°
Reaches altitude 10° 23:13:34 10° 329° (NNW) 2,506 6.0 -16.0°
Maximum altitude 23:19:12 59° 252° (WSW) 993 3.9 -17.1°
Drops below altitude 10° 23:24:49 10° 174° (S) 2,487 5.6 -18.2°
Sets 23:27:17 0° 170° (S) 3,417 6.3 -18.6°
